Temp
19 19 18 15 13 12 12 12 13 14 13 17 19 20 20 20 20 20 19 18 17 18 19 19 20 19 19 19 19 19 19 19 20 19 19 19 19 19 19 19 18 19 18
18 19 17 16 15 13 12 13 13 14 14 17 19 19 19 19 19 19 19 18 18 18 19 19 19 19 19 19 19 19 18 19 18 19 20 20 20 19 19 19 19 19 19
19 19 19 15 15 14 12 13 14 15 14 13 18 18 19 18 18 18 18 19 19 18 19 18 18 18 18 18 18 18 18 18 18 18 19 19 20 20 19 19 19 18 18
19 18 19 17 15 15 13 13 14 15 14 13 16 17 17 17 18 18 18 18 18 17 18 18 18 18 18 18 17 17 17 18 18 17 17 18 18 19 19 19 19 18 17
18 18 18 17 15 14 14 13 13 14 14 12 14 16 16 17 17 17 17 17 17 17 17 17 17 17 17 17 16 16 16 17 17 18 17 18 18 18 17 18 18 18 16
17 17 17 16 15 13 14 13 13 14 15 15 16 16 16 16 16 16 16 17 17 16 16 16 16 16 16 16 16 16 16 16 16 16 16 17 17 17 16 15 15 15 15
17 17 16 15 14 13 14 13 14 15 15 16 15 16 15 16 15 16 16 16 16 16 16 16 16 16 16 16 15 16 16 15 15 16 16 16 16 15 15 14 14 14 13
16 16 15 13 14 15 14 14 14 15 14 13 13 14 16 16 16 15 15 15 16 16 16 15 16 15 15 15 15 15 15 16 16 15 15 15 15 14 14 14 15 15 15
13 13 12 13 14 15 14 14 14 14 14 14 15 14 14 16 15 15 15 15 15 15 16 15 15 15 16 16 15 15 15 15 15 15 14 14 14 14 14 13 13 13 14
11 11 12 14 14 15 15 15 14 14 14 14 14 14 15 15 14 15 15 15 15 15 15 15 15 15 15 15 15 15 15 14 14 14 14 14 14 13 13 13 13 13 12
11 11 13 16 15 14 14 14 14 14 14 14 13 13 13 14 14 14 14 15 15 15 15 15 15 15 15 15 15 14 14 14 14 14 13 13 13 13 12 12 12 11 11
11 11 13 14 15 15 15 15 15 15 14 14 13 13 13 14 13 13 15 14 14 14 15 15 15 14 14 14 14 14 14 14 14 13 13 13 13 12 11 11 11 11 10
10 11 13 12 12 13 14 14 14 13 13 13 13 14 13 13 13 13 13 13 14 14 13 13 13 14 13 13 14 13 13 13 13 13 13 13 12 10 10 10 10 10 9
10 10 11 12 12 12 12 13 13 13 13 13 13 14 13 14 14 13 13 14 13 13 13 13 14 15 14 14 13 13 12 13 13 13 12 11 10 10 10 10 9 9 9
10 10 10 11 11 11 11 12 12 12 12 12 13 13 13 13 13 13 13 14 13 13 13 13 13 13 13 13 13 13 12 12 11 11 10 10 10 10 10 9 8 8 7
11 10 10 10 11 11 10 10 11 12 12 12 12 12 12 12 12 12 12 12 13 13 13 13 13 12 12 12 12 12 12 11 11 10 10 10 10 9 9 9 8 8 7
12 11 11 11 10 10 10 10 10 12 12 11 10 11 11 11 11 11 12 11 11 11 11 11 11 11 11 12 12 11 11 10 10 10 9 9 8 8 8 7 6 6 6
12 12 12 11 11 11 10 10 10 10 10 10 10 10 10 10 10 10 10 9 9 9 9 9 9 9 9 9 10 10 10 9 9 9 8 8 8 7 7 6 5 5 5
12 11 11 11 11 11 11 11 10 10 10 10 9 9 9 9 9 9 9 9 8 8 8 8 8 8 8 9 9 9 9 8 8 8 8 7 7 6 6 5 5 4 4
10 10 11 11 10 11 11 11 11 11 10 9 9 8 8 8 8 8 7 7 7 7 7 7 7 7 8 8 8 8 8 7 7 7 7 7 5 5 6 5 4 4 4
9 10 10 9 9 9 10 10 10 9 8 8 8 8 8 8 7 7 7 7 6 6 6 6 6 6 6 7 8 7 7 7 6 6 6 6 5 5 5 5 3 3 3
9 9 10 9 8 8 9 9 7 7 7 7 7 7 7 7 7 7 6 6 6 6 6 5 5 5 5 5 5 7 6 5 5 5 5 4 4 5 4 3 2 2 2
9 9 9 9 8 7 8 9 7 7 7 7 7 7 6 6 6 7 6 6 6 6 6 6 5 5 4 5 5 6 4 4 4 4 4 4 4 3 3 3 2 1 1
9 9 9 9 8 7 7 6 6 7 7 8 7 7 7 6 6 6 7 7 6 6 7 5 4 4 4 4 4 4 3 3 3 3 2 3 3 3 2 2 2 1 1
7 6 6 7 7 6 6 5 5 6 7 7 7 7 7 6 7 6 6 6 7 6 6 5 4 4 4 5 5 5 4 3 3 3 2 2 2 2 1 1 1 1 1
6 6 6 6 4 4 4 4 4 4 5 5 6 6 6 6 6 6 6 5 6 6 5 5 5 4 5 5 5 4 4 3 3 2 2 1 1 1 1 1 1 1 1
Height
701 701 702 710 715 714 712 717 717 724 734 724 734 742 745 755 762 769 776 784 790 796 802 806 812 818 823 829 833 836 839 841 844 847 848 849 850 851 852 853 854 854 855
697 694 699 704 710 708 709 722 721 727 725 738 737 740 743 753 761 768 775 782 787 793 798 803 808 815 821 827 831 834 837 840 843 844 846 846 847 848 849 850 852 852 853
690 691 692 697 701 701 699 699 714 720 731 726 731 739 746 755 762 768 773 778 782 790 795 800 807 813 818 823 828 832 836 838 842 844 846 846 845 846 846 849 850 851 851
688 689 688 693 696 695 696 698 703 711 723 729 728 735 738 749 756 763 770 775 783 788 793 800 805 810 816 820 826 830 834 837 840 844 844 846 849 849 848 848 849 850 850
685 684 685 690 694 692 696 701 702 715 726 728 726 725 735 748 758 762 769 774 781 787 792 797 802 806 812 817 823 827 831 835 838 840 843 846 847 850 850 849 848 848 847
683 685 684 689 693 695 697 701 709 714 727 734 710 725 735 743 753 758 766 771 777 784 790 795 800 803 808 814 819 824 828 832 836 839 842 844 847 847 847 849 848 847 845
680 683 687 689 693 693 698 701 706 709 724 725 720 728 733 739 747 755 761 767 775 779 786 791 797 801 806 812 816 821 826 829 834 837 839 842 845 846 845 847 847 846 844
682 684 686 689 689 689 696 703 703 708 717 727 729 727 728 739 745 752 757 764 771 777 783 789 794 799 804 809 813 819 823 828 830 834 836 838 842 843 841 845 846 844 843
687 689 689 684 682 687 695 706 710 701 720 730 731 722 731 736 740 749 755 762 767 773 781 785 792 797 801 805 811 816 821 824 828 831 833 837 841 844 844 843 845 845 843
691 689 686 684 684 687 696 704 704 704 722 726 725 726 732 732 740 744 752 758 765 769 777 784 789 795 800 804 808 814 817 820 823 826 831 834 835 841 843 844 844 843 844
692 688 685 685 686 691 694 704 710 715 723 727 733 737 741 740 744 746 751 753 759 768 775 781 786 793 798 802 806 812 815 817 821 824 828 832 836 839 842 843 842 841 842
693 692 686 692 694 697 702 713 715 718 725 730 737 741 739 739 745 749 750 752 754 765 773 776 783 790 795 799 804 807 811 813 814 822 829 830 833 837 838 840 840 839 841
697 695 698 700 702 704 714 715 715 719 729 733 736 738 735 741 748 751 754 760 758 765 770 776 781 786 791 797 797 805 811 808 810 818 824 828 831 834 835 836 837 838 839
706 702 706 708 712 717 718 719 723 729 732 729 731 733 741 749 752 753 757 761 765 768 773 776 779 784 789 793 800 805 808 809 812 816 821 825 828 831 832 834 836 837 839
716 713 717 721 720 721 722 724 724 727 730 731 735 740 745 750 753 757 758 760 763 768 774 776 781 787 789 793 797 801 805 809 812 816 818 821 823 826 830 831 835 836 835
729 730 727 729 729 728 728 732 733 735 736 738 742 746 750 755 757 758 758 759 763 769 773 777 784 786 790 792 796 800 804 804 808 813 815 816 821 824 827 829 831 831 833
740 741 741 743 740 740 739 739 738 739 741 744 747 749 753 755 757 758 757 759 763 770 776 779 783 785 786 790 794 798 801 803 808 810 814 815 819 821 823 826 827 827 830
746 747 748 750 749 748 747 746 744 745 747 747 751 753 755 757 758 759 761 762 767 772 775 779 782 784 786 789 794 799 800 804 806 808 812 813 817 818 821 824 826 827 829
755 755 754 752 751 751 751 753 750 749 751 754 755 756 756 758 759 760 761 765 769 774 777 780 781 782 786 790 794 799 800 804 805 804 809 811 814 817 819 821 825 827 827
757 757 758 756 755 754 753 755 754 754 758 760 760 760 762 761 763 765 766 769 772 774 777 780 783 786 787 790 794 796 797 802 803 805 807 811 814 815 818 819 821 823 826
762 762 760 762 761 760 759 758 757 759 759 760 762 764 764 766 767 767 769 771 775 776 779 781 784 788 787 791 792 796 797 799 801 804 805 808 810 813 812 814 817 818 820
765 762 761 762 763 761 758 759 761 761 762 764 766 769 768 766 767 767 769 774 777 778 780 782 783 787 788 789 791 791 796 797 797 801 805 807 809 810 811 815 814 816 817
771 767 766 767 769 768 768 767 766 766 767 766 766 767 766 769 769 770 772 773 775 776 777 780 783 784 785 788 788 791 794 793 798 801 801 804 805 806 809 811 812 812 815
781 779 775 770 770 770 768 767 768 766 765 767 771 770 767 767 769 771 773 774 775 773 776 779 780 782 784 784 787 788 789 791 795 796 797 800 801 802 803 805 809 811 811
780 782 781 782 783 778 773 771 771 770 770 769 769 768 766 766 766 766 767 768 770 770 773 775 777 779 779 779 781 780 782 786 789 792 793 794 797 801 802 801 805 808 807
772 772 773 774 775 775 775 775 773 772 771 766 766 764 764 765 763 763 764 765 767 768 771 773 773 773 774 773 776 780 781 782 782 785 788 791 794 799 801 798 800 800 803
Wind_Speed
11 11 12 15 16 17 7 14 17 20 33 28 32 29 30 28 28 29 29 29 31 31 30 28 26 23 20 18 18 16 14 10 8 6 6 8 9 9 9 10 10 10 11
16 12 14 17 21 17 13 23 25 17 24 12 28 31 31 26 26 27 29 33 32 30 29 26 25 24 20 19 18 16 13 11 10 5 1 2 7 9 10 10 9 9 10
13 12 12 17 19 15 12 15 29 20 12 25 27 25 24 23 24 26 29 31 30 31 27 27 25 24 20 20 18 16 13 10 9 7 2 1 0 2 8 6 5 6 7
14 12 12 14 17 11 13 16 20 14 22 27 23 32 30 28 29 30 29 29 28 26 28 25 25 24 20 18 17 15 13 9 10 6 7 3 5 2 3 6 6 4 5
12 13 11 13 14 8 14 21 21 17 18 28 35 36 29 28 25 26 28 28 28 28 28 27 24 23 20 17 17 17 14 10 7 6 5 5 2 7 6 5 8 11 7
11 10 11 10 7 12 20 21 21 14 10 30 24 37 34 29 27 26 28 29 28 27 26 24 22 21 20 18 16 14 13 10 10 7 5 4 4 3 3 1 5 10 12
6 9 10 9 11 14 24 20 22 16 10 16 9 29 31 28 31 30 28 27 26 27 28 26 24 21 19 18 17 16 12 11 7 5 7 6 7 9 10 8 5 3 4
5 4 2 5 15 27 27 22 25 33 22 11 7 7 29 27 30 29 25 27 26 27 29 26 25 22 21 17 15 16 15 9 2 6 7 10 8 4 5 5 5 3 3
4 3 4 8 14 26 32 32 29 34 30 22 12 8 12 28 26 29 29 26 29 29 28 26 23 21 20 19 17 14 10 7 6 7 8 6 3 6 7 6 6 1 2
7 5 6 9 13 23 26 27 26 30 29 28 25 27 27 14 21 30 27 31 30 33 30 28 26 20 17 15 15 12 10 12 10 10 9 9 10 9 10 8 9 9 7
5 3 6 10 15 20 24 22 25 30 27 24 23 19 18 23 24 21 20 33 35 32 34 30 21 18 15 12 12 12 16 15 15 10 15 11 10 9 10 10 7 5 5
9 6 9 13 15 18 21 19 21 23 22 21 21 20 20 18 17 21 16 11 32 36 27 24 16 17 15 14 15 16 21 21 16 17 14 12 9 9 8 8 5 4 4
12 11 11 10 13 17 13 15 17 16 16 16 15 16 20 18 16 19 20 23 25 26 22 21 20 15 15 16 12 19 21 21 18 17 14 13 12 9 8 5 3 3 4
15 13 12 10 14 13 12 13 13 12 13 14 15 14 17 20 19 19 19 20 17 19 21 20 21 20 19 19 24 20 19 17 18 17 16 14 12 11 7 4 2 3 4
16 14 13 10 13 14 14 12 12 12 12 15 15 16 15 15 16 19 17 13 13 20 24 23 22 24 25 24 23 21 20 21 19 17 17 15 13 10 8 6 5 5 4
13 11 11 11 13 14 13 11 12 12 11 14 16 16 16 14 17 19 21 22 21 18 18 19 21 21 20 21 22 23 23 20 19 18 16 14 12 11 9 7 7 7 5
12 11 11 9 11 11 11 9 9 10 9 10 11 13 13 14 14 14 16 17 17 17 18 20 21 21 20 21 21 21 20 19 19 18 16 13 12 9 6 4 2 3 4
14 12 11 10 10 10 10 8 8 8 7 7 8 9 10 10 11 11 11 12 13 15 17 17 17 17 18 20 20 19 19 20 19 16 14 11 10 8 6 4 3 3 4
12 13 13 12 12 11 9 7 8 8 7 6 5 5 6 9 9 9 9 10 11 11 12 14 16 16 17 21 20 19 17 16 14 13 12 11 9 9 9 7 6 4 5
14 13 12 12 12 12 10 8 9 9 7 5 3 2 5 7 7 7 10 11 12 14 14 15 14 12 16 20 20 17 15 13 12 11 11 13 11 11 11 8 5 5 5
12 10 11 10 10 9 7 8 8 9 6 4 2 1 3 4 6 9 10 11 10 10 11 13 13 15 12 15 18 17 13 13 13 11 11 11 13 12 11 10 9 8 9
10 11 10 10 10 10 7 6 6 3 2 2 3 2 3 5 6 8 9 9 9 11 11 10 9 9 12 12 14 15 14 12 11 10 10 11 10 11 9 10 7 9 8
5 8 9 8 8 9 8 5 7 3 1 2 2 3 4 5 6 8 9 9 9 10 10 12 11 11 13 13 14 15 15 14 12 11 11 11 9 10 10 9 9 8 9
3 1 1 5 8 9 8 7 6 6 4 4 6 6 5 6 6 7 8 11 13 13 13 13 13 12 14 15 15 17 16 14 14 12 11 10 9 9 8 9 10 11 12
2 2 3 2 2 2 4 6 6 5 4 5 6 7 7 9 9 9 9 10 10 12 12 14 17 15 15 18 18 16 17 16 16 13 11 11 11 12 13 13 13 13 12
5 5 4 2 1 2 3 5 8 9 10 10 9 6 6 7 9 10 11 14 14 15 17 13 13 14 15 12 15 16 16 14 13 15 15 14 16 18 18 15 14 14 14
Wind_Direction
263 230 235 218 216 232 240 215 219 255 294 196 166 163 166 174 174 175 173 176 174 175 174 177 177 175 175 180 181 179 182 184 176 183 214 236 237 241 242 244 244 244 245
243 233 223 232 227 223 231 185 186 213 274 201 172 170 166 172 172 171 171 179 172 177 174 173 173 179 179 185 183 180 182 181 181 183 296 251 195 228 239 237 242 249 252
246 235 223 226 234 214 216 185 182 195 272 314 170 157 156 159 165 173 174 179 173 176 178 172 176 179 181 183 184 183 182 178 182 196 269 181 27 352 169 191 220 249 251
236 239 234 216 234 200 194 189 173 195 245 329 182 161 158 171 176 175 175 172 173 174 176 174 176 178 180 176 181 182 187 178 173 174 213 249 344 339 314 170 218 217 266
230 230 214 222 214 195 183 161 153 159 224 291 301 165 164 171 173 169 170 171 172 174 176 176 178 175 175 175 179 183 183 188 183 174 154 202 256 255 236 277 301 311 286
199 201 223 204 198 197 167 157 157 151 243 312 185 168 168 164 169 167 170 171 170 174 176 174 173 172 174 179 181 185 185 179 198 209 215 209 247 238 223 254 282 289 297
183 213 207 212 209 193 152 164 165 158 258 317 296 171 168 166 169 173 171 169 172 171 174 172 172 170 171 173 175 174 184 188 183 224 233 243 250 253 265 251 277 262 291
204 230 257 226 222 160 155 163 155 159 171 199 315 196 166 175 174 175 171 173 173 176 176 172 170 168 167 173 172 175 170 166 214 222 227 280 263 232 197 215 256 252 243
64 1 300 251 145 146 154 166 163 134 153 167 204 167 131 175 169 175 177 174 173 174 173 164 167 173 171 171 168 170 186 201 208 224 231 179 227 251 240 233 243 247 285
66 9 271 120 127 141 153 159 155 151 161 172 179 161 170 143 147 167 168 174 171 166 167 167 158 158 163 167 176 188 202 191 185 167 179 192 211 233 247 246 242 245 251
23 358 32 95 97 115 119 133 144 145 156 160 168 172 167 165 162 152 159 177 173 171 164 162 158 161 171 182 184 184 176 179 181 181 183 190 202 211 236 246 259 260 263
31 4 67 72 77 97 106 125 122 127 134 145 158 165 165 162 169 177 162 154 153 163 164 168 176 178 179 188 208 216 217 195 185 189 192 188 211 226 233 240 242 252 256
28 22 73 70 64 64 86 98 98 101 118 129 136 141 141 143 152 151 157 168 154 172 166 171 181 189 205 207 190 187 183 174 174 180 192 210 215 218 219 216 215 250 280
45 42 50 58 62 64 73 97 107 119 126 125 138 139 156 178 180 170 167 160 169 174 186 191 196 204 207 197 188 186 187 176 181 189 197 202 197 203 199 201 225 254 263
36 29 39 40 32 49 56 70 93 100 114 121 124 139 155 168 173 176 174 175 165 158 167 171 177 183 185 187 189 185 186 184 182 185 190 188 189 190 199 199 224 253 279
50 55 33 27 39 34 38 60 73 94 106 113 121 130 130 132 137 142 144 152 156 165 172 176 187 188 193 191 190 191 186 183 185 184 184 184 190 201 210 219 233 245 244
59 59 58 43 45 42 44 52 72 80 96 110 117 126 138 143 140 145 150 152 157 169 177 181 185 183 184 190 193 193 188 187 185 184 182 181 191 193 202 215 231 266 277
48 46 54 61 55 52 57 56 68 86 89 100 124 133 141 147 145 147 148 151 163 169 171 174 178 179 181 182 190 191 183 180 180 182 185 187 196 197 197 210 241 272 291
39 44 43 47 41 46 53 67 72 77 77 90 110 128 151 154 158 160 162 160 160 161 166 172 174 178 181 180 181 180 176 180 180 183 189 193 200 211 198 196 216 229 260
43 33 31 43 45 31 29 46 54 48 47 46 59 127 155 158 153 169 173 173 177 179 175 174 173 181 182 181 180 181 182 182 186 191 201 205 195 210 211 206 211 233 248
26 28 40 41 31 28 44 59 60 51 40 24 17 218 163 162 173 168 175 173 180 174 176 175 179 172 185 188 186 188 186 187 188 199 207 222 214 218 219 221 217 229 248
20 23 33 30 23 16 24 56 65 42 51 128 156 186 190 189 182 180 175 178 180 174 180 180 185 193 198 193 208 196 193 192 196 201 214 213 221 221 223 230 228 238 248
27 7 6 18 29 25 18 24 12 0 206 199 225 225 188 195 191 187 186 183 186 187 188 192 192 199 207 216 218 216 210 201 193 201 208 208 208 210 223 233 238 233 246
105 61 19 15 2 358 9 13 355 358 327 268 228 220 215 204 200 200 202 201 198 196 199 196 208 207 215 211 218 212 209 205 211 208 207 211 217 225 229 232 237 240 243
85 83 84 90 114 348 334 318 315 316 291 267 251 234 218 209 209 216 219 218 225 216 211 213 223 208 215 219 218 213 208 211 216 213 216 215 222 231 236 237 238 241 245
345 1 356 352 343 315 312 324 325 324 314 310 303 279 251 238 216 214 220 227 219 225 228 224 222 226 228 230 223 216 212 207 204 200 206 217 225 231 238 240 246 251 254